Tracking 35334 objects as of 13-Sep-2026
HD Live streaming from Space Station
objects crossing your sky now

COSMOS 1654


COSMOS 1654 is no longer on orbit


NORAD ID: 15734
Int'l Code: 1985-039A
Launch date: May 23, 1985
Source: Commonwealth of Independent States (former USSR) (CIS)
Launch site: TYURATAM MISSILE AND SPACE COMPLEX (TTMTR)
Decay date: 1985-08-07
Your satellite tracking list
Your tracking list is empty




NASA's NSSDC Master Catalog

Two Line Element Set (TLE):
1 15734U 85039  A 85217.31386550  .02402554 +33158-4 +14123-3 0  9999
2 15734 064.6793 192.9681 0028573 346.2500 015.0639 16.38330007011948
Source of the keplerian elements: AFSPC